CMP380 SEGU-SEGS

Flight info

Callsign CMP380
Flight time 1h 31m
Altitude 34000
Route ASOSI3A ASOSI UW17 SCV
Aircraft B738/M-SDE2E3FGHIRWXY/LB1

Departure

Time 2026-04-22 02:06
Airport José Joaquín de Olmedo International Airport (SEGU)

Arrival

Time 2026-04-22 03:37
Airport Seymour Galapagos Ecological Airport (SEGS)
Time Latitude Longitude Altitude Speed Heading
2026-04-22 01:49 -2.14715 -79.88237 27 ft 0 kts 300°
2026-04-22 01:53 -2.14720 -79.88229 27 ft 4 kts 302°
2026-04-22 01:53 -2.14736 -79.88208 27 ft 4 kts 315°
2026-04-22 01:54 -2.14756 -79.88191 28 ft 4 kts 340°
2026-04-22 01:54 -2.14774 -79.88188 28 ft 4 kts 63°
2026-04-22 01:54 -2.14776 -79.88189 28 ft 1 kts 107°
2026-04-22 01:58 -2.14783 -79.88170 28 ft 9 kts 111°
2026-04-22 01:58 -2.14825 -79.88073 28 ft 20 kts 98°
2026-04-22 01:58 -2.14735 -79.87978 28 ft 20 kts 28°
2026-04-22 01:58 -2.14653 -79.87879 27 ft 19 kts 75°
2026-04-22 01:59 -2.14671 -79.87763 27 ft 19 kts 163°
2026-04-22 01:59 -2.14740 -79.87788 27 ft 0 kts 210°
2026-04-22 02:05 -2.14749 -79.87794 30 ft 13 kts 211°
2026-04-22 02:05 -2.15031 -79.87955 28 ft 81 kts 210°
2026-04-22 02:05 -2.15706 -79.88336 27 ft 140 kts 210°
2026-04-22 02:06 -2.16694 -79.88917 36 ft 188 kts 209°
2026-04-22 02:06 -2.17861 -79.89554 722 ft 187 kts 208°
2026-04-22 02:06 -2.18973 -79.90132 1629 ft 175 kts 211°
2026-04-22 02:06 -2.20048 -79.90767 2200 ft 190 kts 218°
2026-04-22 02:07 -2.20793 -79.91924 2375 ft 214 kts 262°
2026-04-22 02:07 -2.20759 -79.93497 2600 ft 240 kts 273°
2026-04-22 02:07 -2.20635 -79.95245 2941 ft 260 kts 273°
2026-04-22 02:07 -2.20516 -79.97082 3576 ft 268 kts 272°
2026-04-22 02:08 -2.20408 -79.98963 4316 ft 273 kts 272°
2026-04-22 02:08 -2.20310 -80.00876 5004 ft 278 kts 272°
2026-04-22 02:08 -2.20221 -80.02816 5770 ft 280 kts 272°
2026-04-22 02:08 -2.20138 -80.04770 6512 ft 283 kts 272°
2026-04-22 02:09 -2.20059 -80.06741 7228 ft 284 kts 272°
2026-04-22 02:09 -2.19983 -80.08721 7932 ft 286 kts 272°
2026-04-22 02:09 -2.19910 -80.10693 8651 ft 288 kts 272°
2026-04-22 02:09 -2.19836 -80.12702 9362 ft 291 kts 272°
2026-04-22 02:10 -2.19762 -80.14752 10065 ft 292 kts 272°
2026-04-22 02:10 -2.19688 -80.16829 10402 ft 309 kts 272°
2026-04-22 02:10 -2.19608 -80.19051 10568 ft 329 kts 272°
2026-04-22 02:10 -2.19524 -80.21408 10710 ft 349 kts 272°
2026-04-22 02:11 -2.19437 -80.23853 10973 ft 362 kts 272°
2026-04-22 02:11 -2.19347 -80.26380 11483 ft 367 kts 272°
2026-04-22 02:11 -2.19256 -80.28935 12035 ft 369 kts 272°
2026-04-22 02:11 -2.19164 -80.31495 12712 ft 369 kts 272°
2026-04-22 02:12 -2.19071 -80.34080 13227 ft 373 kts 272°
2026-04-22 02:12 -2.18978 -80.36685 13770 ft 376 kts 272°
2026-04-22 02:12 -2.18886 -80.39307 14241 ft 379 kts 272°
2026-04-22 02:12 -2.18793 -80.41947 14740 ft 380 kts 272°
2026-04-22 02:13 -2.18699 -80.44600 15229 ft 383 kts 272°
2026-04-22 02:13 -2.18606 -80.47263 15722 ft 385 kts 272°
2026-04-22 02:13 -2.18510 -80.49948 16190 ft 387 kts 272°
2026-04-22 02:13 -2.18414 -80.52647 16660 ft 390 kts 271°
2026-04-22 02:14 -2.18447 -80.55361 17122 ft 392 kts 266°
2026-04-22 02:14 -2.18670 -80.58081 17614 ft 393 kts 264°
2026-04-22 02:14 -2.18951 -80.60805 18062 ft 395 kts 264°
2026-04-22 02:14 -2.19238 -80.63552 18466 ft 398 kts 264°
2026-04-22 02:15 -2.19513 -80.66314 18807 ft 402 kts 264°
2026-04-22 02:15 -2.19775 -80.69112 19132 ft 405 kts 265°
2026-04-22 02:15 -2.20028 -80.71931 19460 ft 409 kts 265°
2026-04-22 02:15 -2.20273 -80.74737 19786 ft 412 kts 265°
2026-04-22 02:16 -2.20521 -80.77603 20114 ft 415 kts 265°
2026-04-22 02:16 -2.20769 -80.80486 20431 ft 418 kts 265°
2026-04-22 02:16 -2.21018 -80.83391 20750 ft 421 kts 265°
2026-04-22 02:16 -2.21271 -80.86323 21083 ft 424 kts 265°
2026-04-22 02:17 -2.21524 -80.89261 21441 ft 425 kts 265°
2026-04-22 02:17 -2.21779 -80.92221 21706 ft 430 kts 265°
2026-04-22 02:17 -2.22033 -80.95217 21908 ft 435 kts 266°
2026-04-22 02:17 -2.22023 -80.98259 22192 ft 438 kts 275°
2026-04-22 02:18 -2.21534 -81.01274 22486 ft 441 kts 280°
2026-04-22 02:18 -2.20934 -81.04299 22725 ft 444 kts 281°
2026-04-22 02:18 -2.20327 -81.07299 22981 ft 447 kts 281°
2026-04-22 02:18 -2.19713 -81.10356 23259 ft 450 kts 281°
2026-04-22 02:19 -2.19106 -81.13434 23513 ft 453 kts 281°
2026-04-22 02:19 -2.18504 -81.16537 23714 ft 455 kts 281°
2026-04-22 02:19 -2.17907 -81.19649 23980 ft 456 kts 280°
2026-04-22 02:19 -2.17311 -81.22775 24211 ft 458 kts 280°
2026-04-22 02:20 -2.16717 -81.25898 24487 ft 458 kts 280°
2026-04-22 02:20 -2.16122 -81.29035 24748 ft 459 kts 280°
2026-04-22 02:20 -2.15525 -81.32174 24964 ft 461 kts 280°
2026-04-22 02:20 -2.14923 -81.35342 25169 ft 463 kts 280°
2026-04-22 02:21 -2.14320 -81.38508 25376 ft 465 kts 280°
2026-04-22 02:21 -2.13715 -81.41690 25627 ft 465 kts 280°
2026-04-22 02:21 -2.13109 -81.44870 25864 ft 466 kts 280°
2026-04-22 02:21 -2.12501 -81.48061 26096 ft 467 kts 280°
2026-04-22 02:22 -2.11893 -81.51257 26303 ft 469 kts 280°
2026-04-22 02:22 -2.11282 -81.54461 26514 ft 470 kts 279°
2026-04-22 02:22 -2.10669 -81.57675 26711 ft 472 kts 280°
2026-04-22 02:22 -2.10048 -81.60896 26936 ft 472 kts 280°
2026-04-22 02:23 -2.09433 -81.64127 27154 ft 473 kts 280°
2026-04-22 02:23 -2.08820 -81.67362 27355 ft 474 kts 279°
2026-04-22 02:23 -2.08207 -81.70604 27546 ft 475 kts 279°
2026-04-22 02:23 -2.07586 -81.73856 27733 ft 477 kts 279°
2026-04-22 02:24 -2.06963 -81.77118 27911 ft 478 kts 279°
2026-04-22 02:24 -2.06341 -81.80384 28099 ft 479 kts 280°
2026-04-22 02:24 -2.05725 -81.83620 28277 ft 480 kts 280°
2026-04-22 02:24 -2.05102 -81.86901 28446 ft 481 kts 279°
2026-04-22 02:25 -2.04569 -81.90209 28611 ft 482 kts 277°
2026-04-22 02:25 -2.04120 -81.93531 28790 ft 483 kts 276°
2026-04-22 02:25 -2.03703 -81.96866 29035 ft 482 kts 276°
2026-04-22 02:25 -2.03294 -82.00190 29324 ft 481 kts 276°
2026-04-22 02:26 -2.02879 -82.03497 29610 ft 480 kts 276°
2026-04-22 02:26 -2.02454 -82.06804 29868 ft 479 kts 276°
2026-04-22 02:26 -2.02022 -82.10103 30093 ft 479 kts 276°
2026-04-22 02:26 -2.01585 -82.13408 30304 ft 479 kts 276°
2026-04-22 02:27 -2.01146 -82.16706 30471 ft 480 kts 276°
2026-04-22 02:27 -2.00704 -82.20020 30633 ft 481 kts 277°
2026-04-22 02:27 -2.00263 -82.23336 30819 ft 481 kts 277°
2026-04-22 02:27 -1.99822 -82.26647 31020 ft 481 kts 277°
2026-04-22 02:28 -1.99381 -82.29965 31214 ft 481 kts 277°
2026-04-22 02:28 -1.98939 -82.33292 31395 ft 482 kts 277°
2026-04-22 02:28 -1.98497 -82.36612 31588 ft 483 kts 277°
2026-04-22 02:28 -1.98055 -82.39936 31790 ft 483 kts 277°
2026-04-22 02:29 -1.97617 -82.43234 31981 ft 483 kts 277°
2026-04-22 02:29 -1.97174 -82.46566 32167 ft 484 kts 277°
2026-04-22 02:29 -1.96731 -82.49901 32358 ft 484 kts 277°
2026-04-22 02:29 -1.96287 -82.53234 32558 ft 485 kts 277°
2026-04-22 02:30 -1.95842 -82.56577 32752 ft 485 kts 277°
2026-04-22 02:30 -1.95396 -82.59919 32939 ft 485 kts 277°
2026-04-22 02:30 -1.94948 -82.63261 33140 ft 486 kts 277°
2026-04-22 02:30 -1.94497 -82.66614 33343 ft 486 kts 277°
2026-04-22 02:31 -1.94047 -82.69967 33546 ft 486 kts 277°
2026-04-22 02:31 -1.93596 -82.73317 33751 ft 486 kts 277°
2026-04-22 02:31 -1.93146 -82.76669 33943 ft 487 kts 277°
2026-04-22 02:32 -1.92240 -82.83411 33989 ft 492 kts 277°
2026-04-22 02:32 -1.91326 -82.90219 34009 ft 496 kts 277°
2026-04-22 02:33 -1.90403 -82.97096 34008 ft 500 kts 277°
2026-04-22 02:33 -1.89474 -83.04005 34002 ft 503 kts 277°
2026-04-22 02:34 -1.88544 -83.10925 33998 ft 502 kts 277°
2026-04-22 02:34 -1.87614 -83.17840 33993 ft 502 kts 277°
2026-04-22 02:35 -1.86842 -83.23581 33987 ft 501 kts 277°
2026-04-22 02:35 -1.85914 -83.30479 33993 ft 500 kts 277°
2026-04-22 02:36 -1.84987 -83.37367 33994 ft 499 kts 277°
2026-04-22 02:36 -1.84060 -83.44250 33991 ft 499 kts 277°
2026-04-22 02:37 -1.83136 -83.51116 33992 ft 498 kts 277°
2026-04-22 02:37 -1.82210 -83.57991 33992 ft 499 kts 277°
2026-04-22 02:38 -1.81285 -83.64856 33989 ft 499 kts 277°
2026-04-22 02:38 -1.80365 -83.71682 33993 ft 499 kts 278°
2026-04-22 02:39 -1.79438 -83.78561 33996 ft 499 kts 277°
2026-04-22 02:39 -1.78510 -83.85444 33994 ft 499 kts 277°
2026-04-22 02:40 -1.77581 -83.92330 33990 ft 499 kts 277°
2026-04-22 02:40 -1.76653 -83.99208 33993 ft 499 kts 277°
2026-04-22 02:41 -1.75724 -84.06095 33992 ft 499 kts 277°
2026-04-22 02:41 -1.74794 -84.12980 33992 ft 499 kts 277°
2026-04-22 02:42 -1.73871 -84.19856 33992 ft 499 kts 277°
2026-04-22 02:42 -1.72950 -84.26741 33992 ft 499 kts 277°
2026-04-22 02:43 -1.72035 -84.33576 33990 ft 499 kts 277°
2026-04-22 02:43 -1.71112 -84.40460 33993 ft 499 kts 277°
2026-04-22 02:44 -1.70190 -84.47341 33993 ft 499 kts 277°
2026-04-22 02:44 -1.69267 -84.54218 33992 ft 499 kts 277°
2026-04-22 02:45 -1.68345 -84.61096 33992 ft 499 kts 277°
2026-04-22 02:45 -1.67422 -84.67974 33983 ft 499 kts 277°
2026-04-22 02:46 -1.66499 -84.74851 33987 ft 499 kts 277°
2026-04-22 02:46 -1.65577 -84.81718 33988 ft 498 kts 277°
2026-04-22 02:47 -1.64660 -84.88545 33987 ft 498 kts 277°
2026-04-22 02:47 -1.63739 -84.95403 33990 ft 498 kts 277°
2026-04-22 02:48 -1.62817 -85.02268 33990 ft 498 kts 277°
2026-04-22 02:48 -1.61895 -85.09128 33992 ft 498 kts 277°
2026-04-22 02:49 -1.60972 -85.15992 33984 ft 498 kts 277°
2026-04-22 02:49 -1.60056 -85.22853 33991 ft 498 kts 277°
2026-04-22 02:50 -1.59143 -85.29713 33985 ft 498 kts 277°
2026-04-22 02:50 -1.58228 -85.36577 33988 ft 498 kts 277°
2026-04-22 02:51 -1.57318 -85.43401 33975 ft 498 kts 277°
2026-04-22 02:51 -1.56402 -85.50265 33986 ft 498 kts 277°
2026-04-22 02:52 -1.55491 -85.57131 33983 ft 498 kts 277°
2026-04-22 02:52 -1.54572 -85.64004 33995 ft 498 kts 277°
2026-04-22 02:53 -1.53647 -85.70874 33994 ft 498 kts 277°
2026-04-22 02:53 -1.52690 -85.77742 33986 ft 499 kts 278°
2026-04-22 02:54 -1.51577 -85.84594 33991 ft 499 kts 279°
2026-04-22 02:54 -1.50436 -85.91384 33989 ft 499 kts 279°
2026-04-22 02:55 -1.49308 -85.98225 33983 ft 499 kts 279°
2026-04-22 02:55 -1.48206 -86.05071 33989 ft 499 kts 279°
2026-04-22 02:56 -1.47110 -86.11914 33988 ft 498 kts 278°
2026-04-22 02:56 -1.46014 -86.18747 33987 ft 499 kts 278°
2026-04-22 02:57 -1.44918 -86.25561 33986 ft 499 kts 278°
2026-04-22 02:57 -1.43816 -86.32414 33989 ft 500 kts 278°
2026-04-22 02:58 -1.42711 -86.39273 33988 ft 500 kts 278°
2026-04-22 02:58 -1.41605 -86.46145 33987 ft 500 kts 278°
2026-04-22 02:59 -1.40506 -86.52974 33987 ft 500 kts 278°
2026-04-22 02:59 -1.39400 -86.59843 33984 ft 501 kts 278°
2026-04-22 03:00 -1.38293 -86.66723 33987 ft 501 kts 278°
2026-04-22 03:00 -1.37186 -86.73596 33986 ft 501 kts 278°
2026-04-22 03:01 -1.36077 -86.80477 33999 ft 501 kts 278°
2026-04-22 03:01 -1.34967 -86.87364 33981 ft 502 kts 278°
2026-04-22 03:02 -1.33860 -86.94242 33985 ft 501 kts 278°
2026-04-22 03:02 -1.32758 -87.01087 33988 ft 501 kts 278°
2026-04-22 03:03 -1.31648 -87.07969 33987 ft 501 kts 278°
2026-04-22 03:03 -1.30540 -87.14840 33987 ft 501 kts 278°
2026-04-22 03:04 -1.29432 -87.21715 33988 ft 501 kts 278°
2026-04-22 03:04 -1.28321 -87.28595 33988 ft 501 kts 278°
2026-04-22 03:05 -1.27213 -87.35460 33991 ft 500 kts 278°
2026-04-22 03:05 -1.26106 -87.42324 33989 ft 500 kts 278°
2026-04-22 03:06 -1.25000 -87.49175 33993 ft 500 kts 278°
2026-04-22 03:06 -1.23893 -87.56034 33990 ft 500 kts 278°
2026-04-22 03:07 -1.22786 -87.62897 33984 ft 500 kts 278°
2026-04-22 03:07 -1.21679 -87.69749 33984 ft 499 kts 278°
2026-04-22 03:08 -1.20581 -87.76551 33993 ft 499 kts 278°
2026-04-22 03:08 -1.19476 -87.83392 33983 ft 498 kts 278°
2026-04-22 03:09 -1.18371 -87.90229 33985 ft 498 kts 278°
2026-04-22 03:09 -1.17267 -87.97061 33989 ft 498 kts 278°
2026-04-22 03:10 -1.16170 -88.03848 33989 ft 497 kts 278°
2026-04-22 03:10 -1.15068 -88.10672 33991 ft 498 kts 278°
2026-04-22 03:11 -1.13946 -88.17502 33986 ft 498 kts 281°
2026-04-22 03:11 -1.11783 -88.24079 33991 ft 499 kts 290°
2026-04-22 03:12 -1.09315 -88.30566 33996 ft 500 kts 290°
2026-04-22 03:12 -1.05689 -88.40342 33984 ft 500 kts 289°
2026-04-22 03:13 -1.03312 -88.46873 33372 ft 500 kts 289°
2026-04-22 03:13 -1.02132 -88.50121 32692 ft 498 kts 289°
2026-04-22 03:13 -1.00945 -88.53390 31984 ft 498 kts 289°
2026-04-22 03:14 -0.99783 -88.56589 31502 ft 493 kts 289°
2026-04-22 03:14 -0.98617 -88.59795 31014 ft 489 kts 290°
2026-04-22 03:14 -0.97459 -88.62974 30539 ft 485 kts 290°
2026-04-22 03:14 -0.96308 -88.66137 30046 ft 482 kts 290°
2026-04-22 03:15 -0.95167 -88.69270 29492 ft 478 kts 290°
2026-04-22 03:15 -0.94034 -88.72381 28962 ft 473 kts 290°
2026-04-22 03:15 -0.92911 -88.75464 28471 ft 469 kts 290°
2026-04-22 03:15 -0.91803 -88.78507 27980 ft 464 kts 290°
2026-04-22 03:16 -0.90703 -88.81524 27502 ft 460 kts 290°
2026-04-22 03:16 -0.89615 -88.84512 27030 ft 455 kts 290°
2026-04-22 03:16 -0.88537 -88.87476 26564 ft 451 kts 290°
2026-04-22 03:16 -0.87468 -88.90410 26102 ft 448 kts 290°
2026-04-22 03:17 -0.86418 -88.93292 25641 ft 444 kts 290°
2026-04-22 03:17 -0.85363 -88.96183 25175 ft 441 kts 290°
2026-04-22 03:17 -0.84316 -88.99055 24702 ft 439 kts 290°
2026-04-22 03:17 -0.83275 -89.01913 24240 ft 436 kts 290°
2026-04-22 03:18 -0.82241 -89.04761 23770 ft 434 kts 290°
2026-04-22 03:18 -0.81214 -89.07585 23262 ft 432 kts 290°
2026-04-22 03:18 -0.80192 -89.10397 22768 ft 429 kts 290°
2026-04-22 03:18 -0.79178 -89.13182 22291 ft 425 kts 290°
2026-04-22 03:19 -0.78173 -89.15943 21835 ft 421 kts 290°
2026-04-22 03:19 -0.77176 -89.18680 21387 ft 417 kts 290°
2026-04-22 03:19 -0.76191 -89.21385 20936 ft 413 kts 290°
2026-04-22 03:19 -0.75215 -89.24064 20508 ft 409 kts 290°
2026-04-22 03:20 -0.74244 -89.26728 20080 ft 405 kts 290°
2026-04-22 03:20 -0.73285 -89.29362 19650 ft 402 kts 290°
2026-04-22 03:20 -0.72331 -89.31980 19220 ft 399 kts 290°
2026-04-22 03:20 -0.71387 -89.34572 18807 ft 396 kts 290°
2026-04-22 03:21 -0.70460 -89.37117 18368 ft 393 kts 290°
2026-04-22 03:21 -0.69516 -89.39707 17894 ft 391 kts 290°
2026-04-22 03:21 -0.68589 -89.42248 17431 ft 387 kts 290°
2026-04-22 03:21 -0.67683 -89.44731 17001 ft 384 kts 290°
2026-04-22 03:22 -0.66771 -89.47230 16582 ft 380 kts 290°
2026-04-22 03:22 -0.65868 -89.49706 16166 ft 377 kts 290°
2026-04-22 03:22 -0.64975 -89.52161 15758 ft 374 kts 290°
2026-04-22 03:22 -0.64092 -89.54595 15350 ft 371 kts 290°
2026-04-22 03:23 -0.63211 -89.57009 14943 ft 369 kts 290°
2026-04-22 03:23 -0.62338 -89.59409 14547 ft 366 kts 289°
2026-04-22 03:23 -0.61470 -89.61795 14149 ft 364 kts 290°
2026-04-22 03:23 -0.60602 -89.64170 13738 ft 363 kts 290°
2026-04-22 03:24 -0.59739 -89.66531 13287 ft 361 kts 290°
2026-04-22 03:24 -0.58883 -89.68879 12873 ft 358 kts 290°
2026-04-22 03:24 -0.58033 -89.71211 12471 ft 356 kts 290°
2026-04-22 03:24 -0.57200 -89.73499 12078 ft 353 kts 290°
2026-04-22 03:25 -0.56362 -89.75798 11689 ft 351 kts 290°
2026-04-22 03:25 -0.55532 -89.78079 11304 ft 348 kts 290°
2026-04-22 03:25 -0.54707 -89.80345 10929 ft 346 kts 290°
2026-04-22 03:25 -0.53895 -89.82574 10790 ft 336 kts 290°
2026-04-22 03:26 -0.53369 -89.84017 10692 ft 330 kts 290°
2026-04-22 03:26 -0.52583 -89.86173 10540 ft 321 kts 290°
2026-04-22 03:26 -0.51839 -89.88214 10419 ft 313 kts 290°
2026-04-22 03:26 -0.51104 -89.90231 10292 ft 305 kts 291°
2026-04-22 03:27 -0.50388 -89.92198 10164 ft 297 kts 291°
2026-04-22 03:27 -0.49692 -89.94111 10045 ft 289 kts 291°
2026-04-22 03:27 -0.49009 -89.95988 9836 ft 286 kts 291°
2026-04-22 03:27 -0.48331 -89.97850 9542 ft 284 kts 291°
2026-04-22 03:28 -0.47657 -89.99703 9266 ft 283 kts 291°
2026-04-22 03:28 -0.46987 -90.01544 8989 ft 282 kts 291°
2026-04-22 03:28 -0.46318 -90.03378 8719 ft 280 kts 291°
2026-04-22 03:28 -0.45656 -90.05204 8450 ft 278 kts 291°
2026-04-22 03:29 -0.45105 -90.07049 8158 ft 278 kts 277°
2026-04-22 03:29 -0.44853 -90.09000 7537 ft 289 kts 291°
2026-04-22 03:29 -0.43699 -90.10589 7268 ft 283 kts 326°
2026-04-22 03:29 -0.41919 -90.11197 7142 ft 270 kts
2026-04-22 03:30 -0.40092 -90.10784 6790 ft 272 kts 19°
2026-04-22 03:30 -0.38242 -90.10586 6510 ft 271 kts 346°
2026-04-22 03:30 -0.36594 -90.11455 6286 ft 269 kts 321°
2026-04-22 03:30 -0.35276 -90.12787 6015 ft 269 kts 313°
2026-04-22 03:31 -0.34058 -90.14202 5738 ft 269 kts 311°
2026-04-22 03:31 -0.32881 -90.15654 5463 ft 268 kts 309°
2026-04-22 03:31 -0.31801 -90.17176 5198 ft 268 kts 303°
2026-04-22 03:31 -0.30887 -90.18792 4948 ft 268 kts 297°
2026-04-22 03:32 -0.30174 -90.20518 4658 ft 269 kts 289°
2026-04-22 03:32 -0.29685 -90.22298 4388 ft 269 kts 283°
2026-04-22 03:32 -0.29403 -90.24155 4232 ft 264 kts 276°
2026-04-22 03:32 -0.29328 -90.25940 4115 ft 257 kts 270°
2026-04-22 03:33 -0.29439 -90.27699 4004 ft 250 kts 264°
2026-04-22 03:33 -0.29722 -90.29390 3896 ft 244 kts 258°
2026-04-22 03:33 -0.30162 -90.30999 3788 ft 237 kts 252°
2026-04-22 03:33 -0.30749 -90.32538 3553 ft 237 kts 246°
2026-04-22 03:34 -0.31494 -90.33999 3317 ft 236 kts 234°
2026-04-22 03:34 -0.32754 -90.34994 3053 ft 232 kts 193°
2026-04-22 03:34 -0.34293 -90.34899 2843 ft 221 kts 151°
2026-04-22 03:34 -0.35526 -90.34017 2465 ft 217 kts 140°
2026-04-22 03:35 -0.36699 -90.33102 2174 ft 209 kts 141°
2026-04-22 03:35 -0.37793 -90.32235 1952 ft 195 kts 140°
2026-04-22 03:35 -0.38817 -90.31399 1665 ft 182 kts 141°
2026-04-22 03:35 -0.39788 -90.30673 1407 ft 168 kts 142°
2026-04-22 03:36 -0.40702 -90.30005 1162 ft 160 kts 143°
2026-04-22 03:36 -0.41593 -90.29353 909 ft 158 kts 143°
2026-04-22 03:36 -0.42481 -90.28703 710 ft 159 kts 143°
2026-04-22 03:36 -0.43374 -90.28051 508 ft 159 kts 142°
2026-04-22 03:37 -0.44261 -90.27411 262 ft 159 kts 144°
2026-04-22 03:37 -0.45112 -90.26778 174 ft 133 kts 144°
2026-04-22 03:37 -0.45689 -90.26362 196 ft 72 kts 143°
2026-04-22 03:37 -0.45923 -90.26192 204 ft 18 kts 143°
2026-04-22 03:38 -0.46020 -90.26115 204 ft 17 kts 142°
2026-04-22 03:38 -0.46059 -90.26090 211 ft 17 kts 145°
2026-04-22 03:38 -0.46112 -90.26051 208 ft 17 kts 145°
2026-04-22 03:38 -0.46191 -90.25972 207 ft 16 kts 100°
2026-04-22 03:39 -0.46222 -90.25924 208 ft 7 kts 212°
2026-04-22 03:39 -0.46215 -90.25965 210 ft 7 kts 303°
2026-04-22 03:39 -0.46171 -90.26017 214 ft 15 kts 315°
2026-04-22 03:39 -0.46060 -90.26105 205 ft 26 kts 316°
2026-04-22 03:40 -0.45881 -90.26221 204 ft 35 kts 321°
2026-04-22 03:40 -0.45672 -90.26378 189 ft 40 kts 324°
2026-04-22 03:40 -0.45438 -90.26541 181 ft 41 kts 326°
2026-04-22 03:40 -0.45221 -90.26716 177 ft 39 kts 318°
2026-04-22 03:41 -0.45004 -90.26864 172 ft 37 kts 330°
2026-04-22 03:41 -0.44797 -90.27008 164 ft 36 kts 324°
2026-04-22 03:41 -0.44650 -90.27047 160 ft 10 kts 49°
2026-04-22 03:41 -0.44644 -90.27039 160 ft 0 kts 52°
2026-04-22 03:43 -0.44613 -90.27010 160 ft 9 kts 19°
2026-04-22 03:43 -0.44552 -90.27040 158 ft 11 kts 323°
2026-04-22 03:43 -0.44509 -90.27076 155 ft 6 kts 252°
2026-04-22 03:43 -0.44541 -90.27067 157 ft 6 kts 126°
2026-04-22 03:44 -0.44569 -90.27039 158 ft 6 kts 140°
2026-04-22 03:44 -0.44602 -90.27016 160 ft 1 kts 145°
2026-04-22 03:45 -0.44607 -90.27012 161 ft 0 kts 144°